Location: Tralonca
(42.3422°N, 9.2058°E)
Time: 07:22:04
(UTC+00:00)

Daily predictions for brighter satellites

Satellite Brightness Start Highest point End
(mag) Time Altitude Azimuth Time Altitude Azimuth Time Altitude Azimuth
BREEZE-M DEB (TANK) 4.4 18:46:06 10° WNW 18:50:06 84° SSW 19:05:32 10° SE
Cosmos 1980 Rocket 4.2 18:57:26 10° NNE 19:00:09 13° NE 19:02:51 10° ENE
MOS 1 4.4 18:54:41 10° SSE 19:00:15 66° ENE 19:05:52 10° N
ERBS 3.6 18:57:07 10° WSW 19:00:19 43° NW 19:03:31 10° NE
DMSP B5D2-2 4.2 19:01:48 10° NNE 19:06:57 56° E 19:12:06 10° S
SL-4 R/B 2.8 19:04:43 10° SSW 19:08:13 27° SE 19:11:30 10° ENE
ATLAS 5 CENTAUR R/B 2.8 19:03:32 10° NNW 19:09:06 50° NE 19:15:31 10° SE
SL-08 RB Rocket 3.9 19:07:45 10° S 19:12:21 81° WSW 19:17:02 10° NNW
MetOp-A 4.2 19:08:50 10° SSE 19:14:08 69° ENE 19:19:29 10° N
Cosmos 1833 Rocket 3.4 19:10:14 10° SSE 19:15:09 32° ESE 19:20:06 10° NE
Cosmos 1697 Rocket 3.8 19:11:51 10° N 19:16:39 28° NE 19:21:19 10° ESE
Cosmos 2228 Rocket 3.2 19:14:19 10° N 19:18:41 58° E 19:23:01 10° SSE
SPOT 3 Rocket 3.8 19:15:19 10° SSE 19:20:22 53° ENE 19:25:26 10° N
Cosmos 1515 Rocket 4.0 19:16:54 10° NNW 19:21:21 68° W 19:25:45 10° S
Cosmos 389 Rocket 3.4 19:18:30 10° N 19:21:36 31° ENE 19:24:21 12° SE
Cosmos 2251 Rocket 3.7 19:16:50 10° SSW 19:22:04 81° WNW 19:27:24 10° NNE
Cosmos 1812 3.6 19:20:06 10° NNE 19:23:32 31° ENE 19:26:33 12° SE
Cosmos 1727 Rocket 4.1 19:17:30 10° N 19:23:53 71° E 19:30:12 10° SSE
Cosmos 1656 3.8 19:23:04 10° NNW 19:28:30 58° ENE 19:33:31 12° SE
Cosmos 1633 4.1 19:26:29 10° SSW 19:29:47 37° WNW 19:33:07 10° N
IRIDIUM 104 4.5 19:25:17 10° SSE 19:30:21 55° E 19:35:28 10° NNE
Resurs 01 Rocket 2.1 19:27:31 11° SE 19:31:31 44° ENE 19:35:44 10° N
Cosmos 972 Rocket 3.8 19:30:00 10° NNW 19:35:00 85° ENE 19:39:54 10° SSE
FALCON 9 DEB 4.0 19:33:20 10° SSW 19:36:24 29° SE 19:39:30 10° ENE
Cosmos 1441 Rocket 3.3 19:33:17 10° S 19:36:58 50° E 19:40:38 10° NNE
IRIDIUM 114 4.3 19:34:20 10° S 19:39:29 68° E 19:44:40 10° N
Cosmos 614 Rocket 3.9 19:35:30 10° S 19:40:33 63° ESE 19:45:42 10° NNE
NOSS 3-2 (A) 4.4 19:37:24 10° SSE 19:41:28 21° ESE 19:45:51 10° ENE
IRIDIUM 103 4.3 19:43:25 10° S 19:48:37 83° E 19:53:51 10° N
USA 267 3.2 19:42:29 10° NE 19:49:04 84° SE 19:55:38 10° SW
Cosmos 1821 Rocket 3.9 19:44:41 10° S 19:50:44 71° E 19:56:56 10° NNE
GP-B 4.2 19:47:51 10° NNE 19:51:37 26° E 19:53:14 21° ESE
COSMOS 2406 3.3 19:47:12 10° SSW 19:52:57 85° WNW 19:58:44 10° NNE
Shenzhou-11 Module 1.2 19:52:30 10° W 19:54:52 82° N 19:55:30 43° E
CZ-2C R/B 4.0 19:52:57 10° N 19:57:35 71° WNW 20:02:04 10° SSW
ERS-1 Rocket 4.3 19:56:09 17° E 19:58:23 24° ENE 20:02:19 10° NNE
SL-16 R/B 4.4 19:56:38 10° NNE 19:58:49 12° NE 20:00:59 10° ENE
Intercosmos 25 3.1 19:55:09 10° N 19:59:28 77° E 20:01:26 23° SSE
Lacrosse 5 4.1 19:57:43 10° NNW 20:01:14 18° NNE 20:04:44 10° ENE
Cosmos 1862 4.0 19:58:16 10° SSW 20:02:14 57° W 20:06:15 10° N
Sich 1 3.0 19:58:41 10° S 20:03:05 86° E 20:07:33 10° N
Cosmos 2369 3.9 19:59:03 10° NNW 20:04:44 58° ENE 20:08:05 24° SE
Cosmos 2082 Rocket 2.3 20:02:35 10° S 20:08:06 53° ESE 20:13:36 10° NNE
BREEZE-M DEB (TANK) 4.4 20:05:53 10° WNW 20:08:10 19° NNW 20:09:46 10° NE
Cosmos 1818 3.6 20:03:50 10° NNW 20:09:19 77° NE 20:12:24 27° SE
Cosmos 1954 Rocket 4.5 20:06:50 20° SSE 20:09:56 39° ESE 20:14:52 10° NE
Cosmos 1535 Rocket 4.5 20:08:44 15° S 20:13:53 61° E 20:19:54 10° NNE
Cosmos 2278 4.2 20:08:28 10° NNW 20:13:58 46° ENE 20:16:44 27° ESE
Spot 2 Rocket 3.6 20:11:25 26° SE 20:14:09 59° ENE 20:19:11 10° N
Cosmos 2123 Rocket 4.1 20:08:16 10° N 20:14:25 59° E 20:18:06 25° SSE
Meteor 2-20 4.4 20:10:03 10° N 20:16:13 70° E 20:20:07 23° SSE
Cosmos 1184 Rocket 3.3 20:21:02 40° E 20:21:02 40° E 20:23:53 10° NNE
Cosmos 1190 Rocket 3.9 20:15:37 10° SSW 20:20:53 85° ESE 20:26:13 10° NNE
CARTOSAT-1 4.5 20:20:04 29° E 20:21:04 32° ENE 20:24:56 10° N
Cosmos 2322 Rocket 4.3 20:18:24 10° NNE 20:21:28 15° NE 20:24:25 10° ENE
Meteor 1-4 Rocket 2.5 20:18:31 10° N 20:21:57 57° ENE 20:22:26 50° ESE
Terra 3.2 20:21:08 21° E 20:22:18 24° ENE 20:26:03 10° NNE
USA 234 3.6 20:18:46 21° ESE 20:23:07 58° NNE 20:29:31 10° NW
Cosmos 407 Rocket 3.7 20:18:31 10° SSW 20:23:50 75° WNW 20:29:09 10° NNE
Cosmos 1605 Rocket 4.2 20:21:08 26° SSE 20:24:14 48° E 20:30:04 10° NNE
Cosmos 1933 Rocket 4.5 20:24:16 29° E 20:24:22 29° E 20:28:11 10° NNE
Cosmos 1666 Rocket 3.5 20:21:27 17° S 20:24:42 84° W 20:29:04 10° N
Cosmos 1238 Rocket 4.0 20:28:02 20° NE 20:28:02 20° NE 20:29:22 10° NNE
SL-8 R/B 4.0 20:22:26 10° WNW 20:27:10 54° SW 20:28:49 36° SSE
MetOp-B 4.2 20:25:45 24° S 20:29:07 78° WSW 20:34:31 10° NNW
Meteor 1-27 Rocket 4.0 20:26:56 10° NNW 20:32:50 71° W 20:36:53 21° S
SPOT 5 3.2 20:35:54 37° E 20:36:33 40° ENE 20:40:36 10° N
USA 238 DEB 3.6 20:30:23 10° SSW 20:36:46 56° ESE 20:43:26 10° NE
USA 238 3.6 20:30:31 10° SSW 20:36:53 56° ESE 20:43:31 10° NE
BREEZE-M DEB (TANK) 3.6 20:35:55 10° W 20:38:39 18° SW 20:39:00 18° SW
SPOT 1/Viking Rocket 3.5 20:39:53 37° SSE 20:42:00 85° ENE 20:47:16 10° NNW
Cosmos 1980 Rocket 2.2 20:39:31 10° NNW 20:45:12 73° ENE 20:47:04 43° SE
Cosmos 2242 Rocket 4.1 20:43:06 10° N 20:47:19 41° ENE 20:47:29 41° E
SL-4 R/B 2.6 20:43:50 10° WSW 20:47:41 51° NNW 20:51:16 10° NE
Cosmos 405 Rocket 3.4 20:49:22 39° NE 20:49:22 39° NE 20:52:04 10° NNE
Cosmos 1140 Rocket 4.1 20:44:24 10° SW 20:49:33 57° WNW 20:54:44 10° NNE
BREEZE-M DEB (TANK) 4.1 20:46:39 10° WNW 20:49:33 36° N 20:56:54 10° ENE
Genesis I 3.4 20:46:49 10° NNW 20:50:39 56° NE 20:50:44 55° ENE
ATLAS 5 CENTAUR R/B 3.6 20:48:24 10° NW 20:53:45 34° WSW 20:57:17 21° SSW
USA 32 4.0 20:53:02 34° S 20:55:21 82° W 21:00:37 10° N
Cosmos 1633 Rocket 4.1 20:55:05 18° SW 20:58:04 44° WNW 21:02:18 10° N
Cosmos 1833 Rocket 4.1 20:53:47 10° SW 20:58:58 37° WNW 21:04:11 10° N
Cosmos 1697 Rocket 3.4 20:55:28 10° NW 21:00:47 45° WSW 21:03:04 30° SSW
Cosmos 1153 Rocket 4.4 21:03:26 47° SSE 21:05:04 65° E 21:11:10 10° NNE
CENTAUR R/B 2.5 21:04:46 49° SE 21:05:19 51° ESE 21:11:48 10° NE
Cosmos 1867 3.9 21:00:01 10° SW 21:05:25 68° NW 21:10:52 10° NNE
Resurs 01 Rocket 4.0 21:05:17 10° SW 21:08:13 17° W 21:11:10 10° NW
Meteor 1-18 Rocket 4.1 21:03:17 10° N 21:08:53 70° E 21:09:50 58° SE
Okean 1-7 3.7 21:04:50 10° N 21:08:30 43° ENE 21:08:30 43° ENE
Cosmos 1850 Rocket 4.1 21:14:19 58° E 21:14:19 58° E 21:19:22 10° NNE
Cosmos 1447 Rocket 4.4 21:09:41 10° N 21:16:05 86° E 21:17:47 52° SSE
Meteor 2-4 Rocket 4.1 21:13:06 10° N 21:18:32 46° ENE 21:18:53 45° E
Cosmos 1470 Rocket 4.5 21:19:31 35° WSW 21:20:46 45° WNW 21:25:01 10° N
ATLAS 5 CENTAUR R/B 3.9 21:20:02 10° N 21:22:41 23° NE 21:23:24 22° ENE
NOSS 3-2 (A) 3.7 21:25:55 10° SW 21:31:31 64° NW 21:37:57 10° NNE
Cosmos 921 Rocket 3.6 21:31:15 10° NNW 21:34:50 49° WNW 21:34:50 49° WNW
ERS-1 Rocket 3.7 21:36:09 40° WSW 21:36:53 43° W 21:41:41 10° NNW
NOSS 3-2 (C) 3.2 21:35:51 53° SW 21:37:20 90° NW 21:43:46 10° NE
Cosmos 841 Rocket 4.1 21:37:09 10° N 21:42:00 44° ENE 21:42:00 44° ENE
Cosmos 540 Rocket 4.1 21:38:39 10° N 21:43:22 43° ENE 21:43:22 43° ENE
SL-16 R/B 2.2 21:38:27 10° NNW 21:44:06 64° ENE 21:44:17 64° ENE
Lacrosse 5 2.4 21:40:21 10° NW 21:45:16 48° NE 21:45:31 48° NE
Cosmos 468 Rocket 4.0 21:40:30 10° NNW 21:45:45 78° W 21:45:45 78° W
Cosmos 1741 Rocket 4.0 21:48:23 73° W 21:48:36 74° WNW 21:53:53 10° NNE
Cosmos 2082 Rocket 4.2 21:47:48 10° WSW 21:52:28 26° NW 21:57:09 10° N
Cosmos 1570 Rocket 4.3 21:48:14 10° NNW 21:53:10 57° NE 21:53:10 57° NE
Cosmos 2219 Rocket 4.3 21:51:22 10° N 21:54:43 16° NE 21:56:38 13° ENE
Terra 2.8 22:00:02 39° W 22:00:02 39° W 22:04:17 10° NNW
USA 234 3.7 22:06:06 45° SW 22:06:13 45° SW 22:12:26 10° WNW
Cosmos 2100 Rocket 4.1 22:05:36 61° WSW 22:06:23 68° W 22:12:31 10° N
Cosmos 2322 Rocket 2.2 22:00:45 10° NNW 22:06:13 77° NNE 22:06:13 77° NNE
Meteor 1-11 Rocket 3.9 22:09:09 62° NE 22:09:09 62° NE 22:14:06 10° NNE
Geosat 4.4 22:20:48 61° NW 22:20:48 61° NW 22:24:57 10° NNW
ATLAS 3B R/B 2.7 22:21:12 60° ENE 22:21:12 60° ENE 22:26:52 10° NE
Iridium 4 Rocket 4.4 22:21:45 37° NW 22:21:45 37° NW 22:24:46 10° N
Cosmos 2360 Rocket 2.6 22:15:05 10° NNW 22:20:19 55° NE 22:20:19 55° NE
Cosmos 2173 Rocket 4.4 22:21:11 51° WSW 22:22:00 55° WNW 22:28:01 10° N
ALOS 2 4.1 22:27:44 32° NNE 22:27:44 32° NNE 22:30:24 10° N
Cosmos 1725 Rocket 3.9 22:27:19 87° N 22:27:19 87° N 22:33:34 10° N
SL-4 R/B 4.4 22:25:02 10° WNW 22:27:13 19° NNW 22:27:13 19° NNW
Cosmos 1980 Rocket 4.2 22:25:13 10° WNW 22:28:30 16° W 22:28:51 16° WSW
SL-08 R/B 4.4 22:32:19 79° NW 22:32:19 79° NW 22:38:13 10° N
Cosmos 2016 Rocket 4.3 22:39:51 59° W 22:40:11 60° W 22:46:29 10° N
Cosmos 2333 Rocket 3.3 22:35:51 10° N 22:41:06 35° NE 22:41:19 35° ENE
Cosmos 2061 Rocket 4.3 22:41:23 58° W 22:41:36 58° W 22:47:43 10° N
Lacrosse 4 Rocket 3.9 22:45:23 16° NE 22:45:23 16° NE 22:46:21 10° NE
MOS 1-B Rocket 4.5 22:40:59 10° N 22:46:23 46° WNW 22:46:44 46° W
CENTAUR R/B 3.9 22:51:50 16° W 22:56:13 36° NW 23:02:44 10° NNE
Thor Agena Rocket 4.4 22:52:47 10° N 22:57:00 44° NW 22:57:00 44° NW
Cosmos 2233 Rocket 4.3 23:14:31 61° WNW 23:14:31 61° WNW 23:20:32 10° N
Cosmos 1464 Rocket 4.5 23:15:36 50° ENE 23:15:36 50° ENE 23:20:53 10° NNE
Cosmos 2227 Rocket 4.4 23:22:42 14° E 23:22:42 14° E 23:24:24 10° ENE
SL-16 R/B 4.2 23:23:53 10° WNW 23:26:08 17° W 23:26:08 17° W
Lacrosse 5 4.2 23:23:36 10° WNW 23:24:41 16° WNW 23:24:41 16° WNW
Cosmos 2322 4.3 23:25:18 10° NNW 23:29:31 51° NW 23:29:31 51° NW
Nadezhda 4 Rocket 4.5 23:32:05 10° N 23:38:03 52° ENE 23:38:03 52° ENE
Cosmos 2219 Rocket 2.7 23:33:49 10° NNW 23:38:19 57° NNW 23:38:19 57° NNW
Cosmos 2034 Rocket 4.3 23:43:53 60° ENE 23:43:53 60° ENE 23:49:32 10° NNE
SL-16 R/B 4.3 23:46:15 19° E 23:48:51 25° ENE 23:53:44 10° N
Cosmos 2322 Rocket 4.5 23:46:47 10° WNW 23:48:01 13° WNW 23:48:01 13° WNW
CZ-2D R/B 4.1 23:51:23 10° NE 23:54:54 20° E 23:54:54 20° E
